767  
ASUS44 KLUB 161310  
RWRLUB  
WEST TEXAS WEATHER ROUNDUP  
NATIONAL WEATHER SERVICE LUBBOCK TX  
800 AM CDT SAT OCT 16 2021  
 
NOTE: "FAIR" INDICATES FEW OR NO CLOUDS BELOW 12,000 FEET WITH NO  
SIGNIFICANT WEATHER AND/OR S TO VISIBILITY
.  
 
TXZ004-006>008-010-012-014-016-OKZ002-161400-  
TEXAS PANHANDLE/OKLAHOMA PANHANDLE  
 
CITY SKY/WX TMP DP RH WIND PRES REMARKS
 
AMARILLO CLEAR 37 28 70 SW8 30.40R WCI 31  
BORGER CLEAR 38 28 67 W3 30.42R  
CANADIAN CLEAR 30 28 92 CALM 30.42R  
DALHART CLEAR 30 26 85 SW8 30.41R WCI 22  
DUMAS CLEAR 35 28 75 SW10 30.41R WCI 27  
GUYMON CLEAR 31 27 85 SW5 30.39R WCI 26  
HEREFORD CLEAR 33 29 85 W5 30.44R WCI 28  
PAMPA CLEAR 41 32 69 SW7 30.41S  
PERRYTON CLEAR 33 28 80 W3 30.39R  

 
 
TXZ026-029-035-045-048-161400-  
SOUTHERN PANHANDLE/SOUTH PLAINS/ROLLING PLAINS  
 
CITY SKY/WX TMP DP RH WIND PRES REMARKS
 
CHILDRESS LGT RAIN 42 31 64 NW3 30.42R  
SEMINOLE CLEAR 34 28 79 W3 30.48R  
LUBBOCK CLEAR 35 28 75 NW3 30.43R  
PLAINVIEW CLEAR 32 28 83 W5 30.43R WCI 28  
SNYDER CLEAR 42 32 69 N7 30.42S  

 
 
TXZ052-054-060>062-072-078-127-140-154-169-161400-  
PERMIAN BASIN/CONCHO VALLEY/BIG COUNTRY/EDWARDS PLATEAU  
 
CITY SKY/WX TMP DP RH WIND PRES REMARKS
 
ABILENE CLEAR 45 39 79 CALM 30.40R  
BIG SPRING CLEAR 41 31 68 CALM 30.42R  
BRADY N/A 43 39 87 N5 N/A  
BROWNWOOD CLEAR 46 41 81 N3 30.38S  
JUNCTION CLEAR 46 40 79 CALM 30.39R  
MIDLAND CLEAR 39 30 70 N6 30.42R WCI 35  
ODESSA CLEAR 40 28 62 E9 30.42R WCI 34  
SAN ANGELO CLEAR 40 37 89 S6 30.40R  
SONORA PTCLDY 43 41 93 CALM 30.44R  
SWEETWATER CLEAR 46 32 58 W5 30.43S  
WINK CLEAR 38 26 62 N6 30.42R WCI 33  

 
 
TXZ055-058-074-075-080-082-161400-  
FAR WEST/SOUTHWEST MOUNTAINS/TRANS PECOS  
 
CITY SKY/WX TMP DP RH WIND PRES REMARKS
 
ALPINE CLEAR 46 31 56 CALM 30.48R  
DRYDEN N/A 51 38 60 N3 30.43R  
EL PASO CLEAR 50 26 39 N6 30.36R  
FORT STOCKTON CLEAR 49 34 56 SE8 30.42R  
GUADALUPE PASS CLEAR 44 30 57 NE33 30.39F  
MARFA CLEAR 40 29 64 N7 30.45R  
PECOS CLEAR 44 27 51 N5 30.43R  
PRESIDIO FAIR 58 35 41 NE13G18 30.37R  

 
 
TXZ014-016-019-021>030-083-161400  
TEXAS TECH WEST TEXAS MESONET/TEXAS PANHANDLE/NORTHERN SOUTH PLAINS  
 
CITY SKY/WX TMP DP RH WIND PRES REMARKS
 
ABERNATHY 5ENE N/A 36 30 80 W6 30.44S WCI 31  
AMARILLO 9NNE N/A 29 27 89 CALM 30.43S  
AMARILLO 7SSE N/A 32 27 81 SW6 30.44S WCI 26  
AMHERST 1NE N/A 34 29 82 W7 30.44R WCI 27  
BOOTLEG 11WNW N/A 34 28 77 SW10 30.46R WCI 26  
CANADIAN 6E N/A 33 31 91 NW6 30.40S WCI 28  
CAPROCK CYN SP N/A 43 29 59 W6 30.42S  
CHILDRESS 2NNE N/A 42 32 66 W8 30.42S  
CLARENDON 2WSW N/A 33 27 77 CALM 30.42S  
CLAUDE 12SW N/A 45 28 51 SW5 30.43S  
DIMMITT 2NE N/A 38 29 68 SW5 30.44R WCI 35  
FLOYDADA 2NNE N/A 33 28 82 W7 30.43S WCI 26  
FRIONA 2NE N/A 30 26 84 SW5 30.44R WCI 25  
GOODLETT 3W N/A 45 33 63 NW9 30.40F  
HART 3N N/A 31 29 90 W5 30.44R WCI 27  
HEREFORD 2NW N/A 32 27 81 W8 30.44S WCI 24  
MCLEAN 1E N/A 40 28 61 W6 30.40S  
MEMPHIS 1NE N/A 36 33 87 CALM 30.42S  
MULESHOE 2SSW N/A 27 26 96 W6 30.45R WCI 20  
OLTON 6S N/A 35 29 79 CALM 30.43S  
PALO DURO SP N/A 35 27 71 W7 30.45R WCI 29  
PAMPA 2E N/A 40 28 62 SW6 30.42R  
PLAINVIEW 1S N/A 34 29 82 CALM 30.44S  
SILVERTON 7ESE N/A 32 27 83 W8 30.42S WCI 25  
TULIA 2ENE N/A 38 30 71 SW8 30.44S WCI 32  
TURKEY 2WSW N/A 41 34 76 W9 30.42R  
UMBARGER 3NNE N/A 32 27 80 SW7 30.44R WCI 26  

 
 
TXZ033>036-039>041-045>048-161400  
TEXAS TECH WEST TEXAS MESONET/SOUTH PLAINS  
 
CITY SKY/WX TMP DP RH WIND PRES REMARKS
 
AIKEN 3WSW N/A 30 27 88 W6 30.45R WCI 24  
ANDREWS 2NE N/A 39 30 70 N3 30.43S  
ANTON 6SSW N/A 34 29 81 E3 30.43S  
BROWNFIELD 2S N/A 36 30 77 W3 30.44R  
DENVR CTY 7WNW N/A 36 29 76 CALM 30.44R  
GAIL 2ESE N/A 38 33 81 CALM 30.43S  
LAMESA 2SE N/A 35 29 79 CALM 30.44S  
LUBBOCK 3WNW N/A 33 28 82 CALM 30.44S  
MORTON 1ENE N/A 33 28 82 W5 30.44S WCI 28  
ODONNELL 1N N/A 33 25 73 CALM 30.44S  
PLAINS 3N N/A 37 29 73 W5 30.44R WCI 33  
RALLS 1SE N/A 35 31 87 CALM 30.44R  
REESE CENTER N/A 34 28 77 NE3 30.43F  
SEAGRAVES 1SW N/A 33 30 88 CALM 30.44R  
SEMINOLE 2NNE N/A 38 30 73 CALM 30.45R  
SLATON 2NE N/A 38 29 71 CALM 30.44S  
SNYDER 3E N/A 45 32 60 N5 30.42S  
SUNDOWN 8SW N/A 34 29 80 W7 30.44S WCI 28  
TAHOKA 3NNE N/A 32 28 84 W5 30.44R WCI 27  
WOLFFORTH 6SSW N/A 33 27 77 CALM 30.44R  

 
 
TXZ031-032-036>038-042>044-161400-  
TEXAS TECH WEST TEXAS MESONET/ROLLING PLAINS  
 
CITY SKY/WX TMP DP RH WIND PRES REMARKS
 
ASPERMONT 3NE N/A 34 33 96 CALM 30.42R  
FLUVANNA 3WNW N/A 42 32 68 N6 30.42S  
GRAHAM 5SSW N/A 42 29 61 N5 30.43S  
GUTHRIE 10WSW N/A 43 33 66 CALM 30.42R  
HASKELL 1NW N/A 39 36 87 NW8 30.40S WCI 34  
JAYTON 1SSE N/A 38 35 88 W7 30.42S WCI 33  
KNOX CITY 3NW N/A 38 35 88 SW3 30.42R  
LK A HENRY 1NW N/A 41 35 81 CALM 30.43S  
ODELL 4ENE N/A 38 36 92 W5 30.42R WCI 34  
PADUCAH 10SW N/A 44 32 61 W8 30.44R  
POST 1NE N/A 40 29 65 NW7 30.43S  
RRING SPRGS 3N N/A 41 31 67 W9 30.43R  
SEYMOUR 3NW N/A 41 37 85 CALM 30.41R  
SPUR 1W N/A 38 32 77 NW6 30.42R WCI 34  
WEINERT 2NNE N/A 40 34 78 CALM 30.42R  
WHITE RVR 6NE N/A 43 29 58 W6 30.43R  

 
 
TXZ052-054-060>062-072-078-127-140-154-169-161400-  
TEXAS TECH WEST TEXAS MESONET/PERMIAN BASIN/  
CONCHO VALLEY/BIG COUNTRY/EDWARDS PLATEAU  
 
CITY SKY/WX TMP DP RH WIND PRES REMARKS
 
COYANOSA 2N N/A 41 26 56 SW3 30.44R  
JUNCTION 1SSW N/A 39 38 99 CALM 30.40R  
MERTZON 3NNE N/A 38 38 100 CALM 30.43R  
SAN ANGELO 7NW N/A 42 39 89 NW5 30.42R  
STRLNG CT 4WSW N/A 30 30 100 CALM 30.44R  
ST LAWRNCE 5SW N/A 37 29 74 N6 30.43R WCI 32  
WALL 1E N/A 40 39 96 W5 30.42R  

 
 
TXZ055-058-074-075-080-082-161400-  
TEXAS TECH WEST TEXAS MESONET/FAR WEST/SOUTHWEST MOUNTAINS/TRANS PECOS  
 
CITY SKY/WX TMP DP RH WIND PRES REMARKS
 
PRSMN GAP BBNP N/A 55 37 51 N17 30.40R  
GUADLPE MTN NP N/A 42 29 58 NE8 30.46S  

 
 
 
CLICK HERE TO GO TO PREVIOUS BULLETINS.

The Nexlab TX Page Main Text Page